Flag for U.S.A. Weather past 2 weeks in Asheville, North Carolina, U.S.A.

Now
73 °F

Broken clouds.


Feels Like: 75 °F
Forecast: 61 / 78 °F
Wind: 9 mph from North

Location: Asheville Regional Airport

Current Time: Sep 16, 2014 at 11:47:36 AM

Latest Report: Sep 16, 2014 at 10:54 AM


Visibility: 10 mi

Pressure: 30.06 "Hg

Humidity: 74%

Dew point: 64 °F

Location of AshevilleLocation

Historic Weather in Asheville — Graph

°F

Asheville temperature yesterday

Maximum temperature yesterday: 74 °F (at 1:54 PM)
Minimum temperature yesterday: 61 °F (at 12:54 AM)
Average temperature yesterday: 67 °F

Past Weeks' High & Low Weather Summary

 TemperatureHumidityPressure
High87 °F (Sep 1, 2:54 PM)97% (Sep 3, 5:54 AM)30.30 "Hg (Sep 3, 5:54 AM)
Low61 °F (Sep 14, 12:54 PM)46% (Sep 1, 2:54 PM)29.97 "Hg (Sep 7, 3:54 PM)
Average71 °F83%30.10 "Hg
* Reported Sep 1 9:01 AM — Sep 16 9:54 AM, Asheville, Weather by CustomWeather, © 2014

Note: Actual official high and low records may vary slightly from our data, if they occured in-between our weather recording intervals... More about our weather records

Advertising

Asheville weather history for previous 24 hours

 ConditionsComfort  
Time TempWeatherWind HumidityBarometerVisibility
9:54 AM
Sep 16
70 °FPartly sunny.6 mph81%30.07 "Hg10 mi
8:54 AM66 °FSunny.8 mph90%30.07 "Hg10 mi
7:54 AM65 °FClear.10 mph94%30.08 "Hg10 mi
6:54 AM64 °FPassing clouds.7 mph97%30.08 "Hg10 mi
5:54 AM66 °FPassing clouds.7 mph93%30.06 "Hg10 mi
4:54 AM66 °FLow clouds.No wind93%30.06 "Hg10 mi
3:54 AM67 °FLow clouds.No wind93%30.06 "Hg10 mi
2:54 AM66 °FLow clouds.3 mph96%30.08 "Hg10 mi
1:54 AM67 °FLow clouds.No wind93%30.09 "Hg10 mi
12:54 AM67 °FPassing clouds.No wind93%30.12 "Hg10 mi
11:54 PM
Sep 15
67 °FLow clouds.3 mph93%30.13 "Hg10 mi
10:54 PM67 °FLow clouds.6 mph93%30.14 "Hg10 mi
10:04 PM67 °FLight rain. Mostly cloudy.3 mph97%30.19 "Hg7 mi
9:02 PM67 °FLight rain. Low clouds.6 mph97%30.20 "Hg9 mi
8:54 PM67 °FLight rain. Overcast.6 mph97%30.14 "Hg8 mi
7:54 PM67 °FMostly cloudy.No wind93%30.14 "Hg10 mi
6:58 PM68 °FHeavy rain. Fog.3 mph90%30.19 "Hg1 mi
5:54 PM71 °FCloudy.8 mph78%30.11 "Hg10 mi
4:54 PM72 °FMostly cloudy.10 mph76%30.11 "Hg10 mi
3:54 PM74 °FBroken clouds.10 mph74%30.11 "Hg10 mi
2:54 PM74 °FMore clouds than sun.7 mph71%30.13 "Hg10 mi
1:54 PM74 °FPartly sunny.6 mph69%30.14 "Hg10 mi
12:54 PM73 °FSunny.6 mph71%30.17 "Hg10 mi
11:54 AM72 °FPassing clouds.5 mph73%30.19 "Hg10 mi
Weather by CustomWeather, © 2014

See weather overviewHow to use our weather pages